Year,Month,Day,Hour,Minute,Value (Times are PST for temperature in C)
2018,08,10,00,00,20.20
2018,08,10,00,01,20.20
2018,08,10,00,02,20.20
2018,08,10,00,03,20.20
2018,08,10,00,04,20.10
2018,08,10,00,05,20.10
2018,08,10,00,06,20.10
2018,08,10,00,07,20.10
2018,08,10,00,08,20.00
2018,08,10,00,09,19.90
2018,08,10,00,10,19.90
2018,08,10,00,11,19.90
2018,08,10,00,12,19.80
2018,08,10,00,13,19.80
2018,08,10,00,14,19.80
2018,08,10,00,15,19.70
2018,08,10,00,16,19.70
2018,08,10,00,17,19.60
2018,08,10,00,18,19.60
2018,08,10,00,19,19.50
2018,08,10,00,20,19.50
2018,08,10,00,21,19.40
2018,08,10,00,22,19.40
2018,08,10,00,23,19.30
2018,08,10,00,24,19.30
2018,08,10,00,25,19.30
2018,08,10,00,26,19.20
2018,08,10,00,27,19.20
2018,08,10,00,28,19.20
2018,08,10,00,29,19.20
2018,08,10,00,30,19.20
2018,08,10,00,31,19.10
2018,08,10,00,32,19.10
2018,08,10,00,33,19.10
2018,08,10,00,34,19.10
2018,08,10,00,35,19.20
2018,08,10,00,36,19.20
2018,08,10,00,37,19.20
2018,08,10,00,38,19.30
2018,08,10,00,39,19.30
2018,08,10,00,40,19.30
2018,08,10,00,41,19.30
2018,08,10,00,42,19.30
2018,08,10,00,43,19.30
2018,08,10,00,44,19.30
2018,08,10,00,45,19.30
2018,08,10,00,46,19.30
2018,08,10,00,47,19.20
2018,08,10,00,48,19.20
2018,08,10,00,49,19.20
2018,08,10,00,50,19.10
2018,08,10,00,51,19.10
2018,08,10,00,52,19.10
2018,08,10,00,53,19.10
2018,08,10,00,54,19.00
2018,08,10,00,55,19.00
2018,08,10,00,56,18.90
2018,08,10,00,57,18.90
2018,08,10,00,58,18.90
2018,08,10,00,59,18.90
2018,08,10,01,00,18.90
2018,08,10,01,01,18.90
2018,08,10,01,02,18.90
2018,08,10,01,03,18.80
2018,08,10,01,04,18.80
2018,08,10,01,05,18.70
2018,08,10,01,06,18.70
2018,08,10,01,07,18.60
2018,08,10,01,08,18.60
2018,08,10,01,09,18.60
2018,08,10,01,10,18.60
2018,08,10,01,11,18.60
2018,08,10,01,12,18.60
2018,08,10,01,13,18.60
2018,08,10,01,14,18.60
2018,08,10,01,15,18.60
2018,08,10,01,16,18.60
2018,08,10,01,17,18.60
2018,08,10,01,18,18.60
2018,08,10,01,19,18.60
2018,08,10,01,20,18.50
2018,08,10,01,21,18.50
2018,08,10,01,22,18.50
2018,08,10,01,23,18.50
2018,08,10,01,24,18.50
2018,08,10,01,25,18.40
2018,08,10,01,26,18.40
2018,08,10,01,27,18.40
2018,08,10,01,28,18.40
2018,08,10,01,29,18.50
2018,08,10,01,30,18.50
2018,08,10,01,31,18.50
2018,08,10,01,32,18.50
2018,08,10,01,33,18.50
2018,08,10,01,34,18.50
2018,08,10,01,35,18.50
2018,08,10,01,36,18.40
2018,08,10,01,37,18.40
2018,08,10,01,38,18.40
2018,08,10,01,39,18.50
2018,08,10,01,40,18.50
2018,08,10,01,41,18.50
2018,08,10,01,42,18.50
2018,08,10,01,43,18.50
2018,08,10,01,44,18.50
2018,08,10,01,45,18.60
2018,08,10,01,46,18.60
2018,08,10,01,47,18.60
2018,08,10,01,48,18.60
2018,08,10,01,49,18.60
2018,08,10,01,50,18.60
2018,08,10,01,51,18.60
2018,08,10,01,52,18.60
2018,08,10,01,53,18.60
2018,08,10,01,54,18.60
2018,08,10,01,55,18.50
2018,08,10,01,56,18.50
2018,08,10,01,57,18.40
2018,08,10,01,58,18.40
2018,08,10,01,59,18.30
2018,08,10,02,00,18.30
2018,08,10,02,01,18.20
2018,08,10,02,02,18.20
2018,08,10,02,03,18.10
2018,08,10,02,04,18.10
2018,08,10,02,05,18.10
2018,08,10,02,06,18.10
2018,08,10,02,07,18.10
2018,08,10,02,08,18.10
2018,08,10,02,09,18.10
2018,08,10,02,10,18.10
2018,08,10,02,11,18.10
2018,08,10,02,12,18.10
2018,08,10,02,13,18.10
2018,08,10,06,44,18.30
2018,08,10,06,45,18.30
2018,08,10,06,46,18.40
2018,08,10,06,47,18.40
2018,08,10,06,48,18.40
2018,08,10,06,49,18.40
2018,08,10,06,50,18.50
2018,08,10,06,51,18.50
2018,08,10,06,52,18.40
2018,08,10,06,53,18.40
2018,08,10,06,54,18.40
2018,08,10,06,55,18.40
2018,08,10,06,56,18.40
2018,08,10,06,57,18.40
2018,08,10,06,58,18.50
2018,08,10,06,59,18.50
2018,08,10,07,00,18.50
2018,08,10,07,01,18.60
2018,08,10,07,02,18.60
2018,08,10,07,03,18.60
2018,08,10,07,04,18.60
2018,08,10,07,05,18.60
2018,08,10,07,06,18.70
2018,08,10,07,07,18.70
2018,08,10,07,08,18.70
2018,08,10,07,09,18.80
2018,08,10,07,10,18.80
2018,08,10,07,11,18.80
2018,08,10,07,12,18.80
2018,08,10,07,13,18.90
2018,08,10,07,14,18.90
2018,08,10,07,15,19.00
2018,08,10,07,16,19.00
2018,08,10,07,17,19.10
2018,08,10,07,18,19.10
2018,08,10,07,19,19.10
2018,08,10,07,20,19.20
2018,08,10,07,21,19.20
2018,08,10,07,22,19.30
2018,08,10,07,23,19.30
2018,08,10,07,24,19.30
2018,08,10,07,25,19.40
2018,08,10,07,26,19.50
2018,08,10,07,27,19.50
2018,08,10,07,28,19.60
2018,08,10,07,29,19.60
2018,08,10,07,30,19.70
2018,08,10,07,31,19.80
2018,08,10,07,32,19.80
2018,08,10,07,33,19.90
2018,08,10,07,34,20.00
2018,08,10,07,35,20.10
2018,08,10,07,36,20.20
2018,08,10,07,37,20.30
2018,08,10,07,38,20.40
2018,08,10,07,39,20.50
2018,08,10,07,40,20.50
2018,08,10,07,41,20.60
2018,08,10,07,42,20.70
2018,08,10,07,43,20.80
2018,08,10,07,44,20.80
2018,08,10,07,45,20.90
2018,08,10,07,46,20.90
2018,08,10,07,47,20.90
2018,08,10,07,48,20.90
2018,08,10,07,49,20.90
2018,08,10,07,50,20.90
2018,08,10,07,51,20.90
2018,08,10,07,52,20.80
2018,08,10,07,53,20.80
2018,08,10,07,54,20.80
2018,08,10,07,55,20.80
2018,08,10,07,56,20.80
2018,08,10,07,57,20.90
2018,08,10,07,58,20.90
2018,08,10,07,59,20.90
2018,08,10,08,00,20.90
2018,08,10,08,01,20.90
2018,08,10,08,02,20.90
2018,08,10,08,03,20.90
2018,08,10,08,04,20.90
2018,08,10,08,05,20.90
2018,08,10,08,06,20.90
2018,08,10,08,07,20.90
2018,08,10,08,08,21.00
2018,08,10,08,09,21.00
2018,08,10,08,10,21.10
2018,08,10,08,11,21.10
2018,08,10,08,12,21.20
2018,08,10,08,13,21.40
2018,08,10,08,14,21.50
2018,08,10,08,15,21.70
2018,08,10,08,16,21.80
2018,08,10,08,17,21.90
2018,08,10,08,18,22.00
2018,08,10,08,19,22.10
2018,08,10,08,20,22.30
2018,08,10,08,21,22.40
2018,08,10,08,22,22.50
2018,08,10,08,23,22.60
2018,08,10,08,24,22.60
2018,08,10,08,25,22.70
2018,08,10,08,26,22.80
2018,08,10,08,27,22.90
2018,08,10,08,28,22.90
2018,08,10,08,29,22.90
2018,08,10,08,30,23.00
2018,08,10,08,31,22.90
2018,08,10,08,32,23.00
2018,08,10,08,33,23.00
2018,08,10,08,34,23.00
2018,08,10,08,35,23.00
2018,08,10,08,36,23.00
2018,08,10,08,37,22.90
2018,08,10,08,38,22.90
2018,08,10,08,39,22.90
2018,08,10,08,40,22.90
2018,08,10,08,41,22.90
2018,08,10,08,42,22.90
2018,08,10,08,43,22.90
2018,08,10,08,44,22.80
2018,08,10,08,45,22.80
2018,08,10,08,46,22.80
2018,08,10,08,47,22.80
2018,08,10,08,48,22.80
2018,08,10,08,49,22.80
2018,08,10,08,50,22.80
2018,08,10,08,51,22.80
2018,08,10,08,52,22.80
2018,08,10,08,53,22.90
2018,08,10,08,54,22.90
2018,08,10,08,55,22.90
2018,08,10,08,56,22.90
2018,08,10,08,57,22.90
2018,08,10,08,58,22.90
2018,08,10,08,59,22.90
2018,08,10,09,00,22.90
2018,08,10,09,01,23.00
2018,08,10,09,02,23.00
2018,08,10,09,03,22.90
2018,08,10,09,04,23.00
2018,08,10,09,05,23.00
2018,08,10,09,06,23.00
2018,08,10,09,07,23.10
2018,08,10,09,08,23.00
2018,08,10,09,09,23.00
2018,08,10,09,10,23.00
2018,08,10,09,11,23.00
2018,08,10,09,12,23.00
2018,08,10,09,13,23.00
2018,08,10,09,14,23.00
2018,08,10,09,15,23.00
2018,08,10,09,16,23.00
2018,08,10,09,17,23.00
2018,08,10,09,18,23.00
2018,08,10,09,19,23.00
2018,08,10,09,20,23.00
2018,08,10,09,21,23.10
2018,08,10,09,22,23.10
2018,08,10,09,23,23.10
2018,08,10,09,24,23.10
2018,08,10,09,25,23.10
2018,08,10,09,26,23.10
2018,08,10,09,27,23.20
2018,08,10,09,28,23.20
2018,08,10,09,29,23.30
2018,08,10,09,30,23.30
2018,08,10,09,31,23.40
2018,08,10,09,32,23.50
2018,08,10,09,33,23.50
2018,08,10,09,34,23.60
2018,08,10,09,35,23.60
2018,08,10,09,36,23.60
2018,08,10,09,37,23.70
2018,08,10,09,38,23.70
2018,08,10,09,39,23.80
2018,08,10,09,40,23.90
2018,08,10,09,41,23.90
2018,08,10,09,42,23.90
2018,08,10,09,43,23.90
2018,08,10,09,44,23.90
2018,08,10,09,45,23.90
2018,08,10,09,46,23.90
2018,08,10,09,47,23.90
2018,08,10,09,48,23.90
2018,08,10,09,49,23.90
2018,08,10,09,50,23.90
2018,08,10,09,51,23.90
2018,08,10,09,52,23.90
2018,08,10,09,53,23.90
2018,08,10,09,54,23.90
2018,08,10,09,55,23.90
2018,08,10,09,56,23.90
2018,08,10,09,57,23.90
2018,08,10,09,58,24.00
2018,08,10,09,59,24.10
2018,08,10,10,00,24.20
2018,08,10,10,01,24.20
2018,08,10,10,02,24.30
2018,08,10,10,03,24.30
2018,08,10,10,04,24.40
2018,08,10,10,05,24.40
2018,08,10,10,06,24.40
2018,08,10,10,07,24.40
2018,08,10,10,08,24.40
2018,08,10,10,09,24.40
2018,08,10,10,10,24.30
2018,08,10,10,11,24.30
2018,08,10,10,12,24.30
2018,08,10,10,13,24.30
2018,08,10,10,14,24.40
2018,08,10,10,15,24.40
2018,08,10,10,16,24.40
2018,08,10,10,17,24.40
2018,08,10,10,18,24.40
2018,08,10,10,19,24.40
2018,08,10,10,20,24.40
2018,08,10,10,21,24.40
2018,08,10,10,22,24.40
2018,08,10,10,23,24.40
2018,08,10,10,24,24.50
2018,08,10,10,25,24.50
2018,08,10,10,26,24.60
2018,08,10,10,27,24.60
2018,08,10,10,28,24.70
2018,08,10,10,29,24.70
2018,08,10,10,30,24.70
2018,08,10,10,31,24.70
2018,08,10,10,32,24.70
2018,08,10,10,33,24.60
2018,08,10,10,34,24.60
2018,08,10,10,35,24.60
2018,08,10,10,36,24.60
2018,08,10,10,37,24.60
2018,08,10,10,38,24.50
2018,08,10,10,39,24.50
2018,08,10,10,40,24.50
2018,08,10,10,41,24.50
2018,08,10,10,42,24.50
2018,08,10,10,43,24.50
2018,08,10,10,44,24.50
2018,08,10,10,45,24.50
2018,08,10,10,46,24.50
2018,08,10,10,47,24.60
2018,08,10,10,48,24.60
2018,08,10,10,49,24.70
2018,08,10,10,50,24.80
2018,08,10,10,51,24.90
2018,08,10,10,52,24.90
2018,08,10,10,53,24.90
2018,08,10,10,54,24.90
2018,08,10,10,55,24.90
2018,08,10,10,56,24.90
2018,08,10,10,57,24.90
2018,08,10,10,58,25.00
2018,08,10,10,59,25.00
2018,08,10,11,00,25.00
2018,08,10,11,01,25.10
2018,08,10,11,02,25.20
2018,08,10,11,03,25.10
2018,08,10,11,04,25.20
2018,08,10,11,05,25.20
2018,08,10,11,06,25.30
2018,08,10,11,07,25.40
2018,08,10,11,08,25.40
2018,08,10,11,09,25.50
2018,08,10,11,10,25.50
2018,08,10,11,11,25.40
2018,08,10,11,12,25.50
2018,08,10,11,13,25.50
2018,08,10,11,14,25.60
2018,08,10,11,15,25.60
2018,08,10,11,16,25.70
2018,08,10,11,17,25.80
2018,08,10,11,18,25.80
2018,08,10,11,19,25.90
2018,08,10,11,20,25.80
2018,08,10,11,21,25.70
2018,08,10,11,22,25.50
2018,08,10,11,23,25.40
2018,08,10,11,24,25.40
2018,08,10,11,25,25.40
2018,08,10,11,26,25.40
2018,08,10,11,27,25.40
2018,08,10,11,28,25.40
2018,08,10,11,29,25.30
2018,08,10,11,30,25.20
2018,08,10,11,31,25.10
2018,08,10,11,32,25.00
2018,08,10,11,33,24.90
2018,08,10,11,34,25.00
2018,08,10,11,35,25.10
2018,08,10,11,36,25.20
2018,08,10,11,37,25.30
2018,08,10,11,38,25.50
2018,08,10,11,39,25.60
2018,08,10,11,40,25.80
2018,08,10,11,41,25.90
2018,08,10,11,42,26.00
2018,08,10,11,43,26.00
2018,08,10,11,44,26.00
2018,08,10,11,45,26.00
2018,08,10,11,46,26.00
2018,08,10,11,47,26.10
2018,08,10,11,48,26.10
2018,08,10,11,49,26.10
2018,08,10,11,50,26.10
2018,08,10,11,51,26.10
2018,08,10,11,52,26.10
2018,08,10,11,53,26.10
2018,08,10,11,54,26.20
2018,08,10,11,55,26.20
2018,08,10,11,56,26.20
2018,08,10,11,57,26.20
2018,08,10,11,58,26.30
2018,08,10,11,59,26.20
2018,08,10,12,00,26.10
2018,08,10,12,01,26.10
2018,08,10,12,02,26.00
2018,08,10,12,03,26.00
2018,08,10,12,04,26.00
2018,08,10,12,05,26.00
2018,08,10,12,06,26.10
2018,08,10,12,07,26.10
2018,08,10,12,08,26.00
2018,08,10,12,09,26.00
2018,08,10,12,10,26.00
2018,08,10,12,11,26.10
2018,08,10,12,12,26.20
2018,08,10,12,13,26.40
2018,08,10,12,14,26.50
2018,08,10,12,15,26.40
2018,08,10,12,16,26.40
2018,08,10,12,17,26.30
2018,08,10,12,18,26.30
2018,08,10,12,19,26.30
2018,08,10,12,20,26.30
2018,08,10,12,21,26.40
2018,08,10,12,22,26.40
2018,08,10,12,23,26.50
2018,08,10,12,24,26.60
2018,08,10,12,25,26.70
2018,08,10,12,26,26.80
2018,08,10,12,27,27.00
2018,08,10,12,28,27.10
2018,08,10,12,29,27.20
2018,08,10,12,30,27.30
2018,08,10,12,31,27.40
2018,08,10,12,32,27.40
2018,08,10,12,33,27.40
2018,08,10,12,34,27.20
2018,08,10,12,35,27.10
2018,08,10,12,36,27.10
2018,08,10,12,37,27.10
2018,08,10,12,38,27.10
2018,08,10,12,39,27.10
2018,08,10,12,40,27.00
2018,08,10,12,41,26.80
2018,08,10,12,42,26.70
2018,08,10,12,43,26.70
2018,08,10,12,44,26.70
2018,08,10,12,45,26.70
2018,08,10,12,46,26.60
2018,08,10,12,47,26.50
2018,08,10,12,48,26.50
2018,08,10,12,49,26.60
2018,08,10,12,50,26.70
2018,08,10,12,51,26.80
2018,08,10,12,52,26.80
2018,08,10,12,53,27.00
2018,08,10,12,54,27.10
2018,08,10,12,55,27.20
2018,08,10,12,56,27.30
2018,08,10,12,57,27.30
2018,08,10,12,58,27.30
2018,08,10,12,59,27.30
2018,08,10,13,00,27.20
2018,08,10,13,01,27.20
2018,08,10,13,02,27.30
2018,08,10,13,03,27.30
2018,08,10,13,04,27.40
2018,08,10,13,05,27.40
2018,08,10,13,06,27.60
2018,08,10,13,07,27.70
2018,08,10,13,08,27.70
2018,08,10,13,09,27.70
2018,08,10,13,10,27.60
2018,08,10,13,11,27.60
2018,08,10,13,12,27.60
2018,08,10,13,13,27.50
2018,08,10,13,14,27.40
2018,08,10,13,15,27.30
2018,08,10,13,16,27.30
2018,08,10,13,17,27.10
2018,08,10,13,18,27.00
2018,08,10,13,19,26.90
2018,08,10,13,20,26.80
2018,08,10,13,21,26.90
2018,08,10,13,22,26.90
2018,08,10,13,23,26.90
2018,08,10,13,24,26.90
2018,08,10,13,25,26.90
2018,08,10,13,26,27.00
2018,08,10,13,27,27.00
2018,08,10,13,28,27.20
2018,08,10,13,29,27.30
2018,08,10,13,30,27.40
2018,08,10,13,31,27.50
2018,08,10,13,32,27.50
2018,08,10,13,33,27.60
2018,08,10,13,34,27.70
2018,08,10,13,35,27.80
2018,08,10,13,36,27.80
2018,08,10,13,37,27.70
2018,08,10,13,38,27.70
2018,08,10,13,39,27.70
2018,08,10,13,40,27.70
2018,08,10,13,41,27.60
2018,08,10,13,42,27.40
2018,08,10,13,43,27.30
2018,08,10,13,44,27.30
2018,08,10,13,45,27.30
2018,08,10,13,46,27.30
2018,08,10,13,47,27.20
2018,08,10,13,48,27.10
2018,08,10,13,49,27.10
2018,08,10,13,50,27.10
2018,08,10,13,51,27.00
2018,08,10,13,52,26.90
2018,08,10,13,53,26.90
2018,08,10,13,54,26.90
2018,08,10,13,55,27.00
2018,08,10,13,56,27.00
2018,08,10,13,57,27.10
2018,08,10,13,58,27.20
2018,08,10,13,59,27.10
2018,08,10,14,00,27.00
2018,08,10,14,01,26.90
2018,08,10,14,02,26.80
2018,08,10,14,03,26.80
2018,08,10,14,04,26.80
2018,08,10,14,05,27.00
2018,08,10,14,06,27.00
2018,08,10,14,07,27.10
2018,08,10,14,08,27.20
2018,08,10,14,09,27.20
2018,08,10,14,10,27.30
2018,08,10,14,11,27.30
2018,08,10,14,12,27.30
2018,08,10,14,13,27.40
2018,08,10,14,14,27.50
2018,08,10,14,15,27.60
2018,08,10,14,16,27.70
2018,08,10,14,17,27.70
2018,08,10,14,18,27.70
2018,08,10,14,19,27.70
2018,08,10,14,20,27.70
2018,08,10,14,21,27.80
2018,08,10,14,22,27.80
2018,08,10,14,23,27.70
2018,08,10,14,24,27.70
2018,08,10,14,25,27.70
2018,08,10,14,26,27.60
2018,08,10,14,27,27.50
2018,08,10,14,28,27.40
2018,08,10,14,29,27.30
2018,08,10,14,30,27.30
2018,08,10,14,31,27.30
2018,08,10,14,32,27.30
2018,08,10,14,33,27.30
2018,08,10,14,34,27.40
2018,08,10,14,35,27.50
2018,08,10,14,36,27.60
2018,08,10,14,37,27.70
2018,08,10,14,38,27.70
2018,08,10,14,39,27.80
2018,08,10,14,40,27.80
2018,08,10,14,41,27.80
2018,08,10,14,42,27.90
2018,08,10,14,43,27.90
2018,08,10,14,44,27.90
2018,08,10,14,45,27.90
2018,08,10,14,46,27.90
2018,08,10,14,47,27.80
2018,08,10,14,48,27.80
2018,08,10,14,49,27.70
2018,08,10,14,50,27.70
2018,08,10,14,51,27.60
2018,08,10,14,52,27.60
2018,08,10,14,53,27.60
2018,08,10,14,54,27.60
2018,08,10,14,55,27.70
2018,08,10,14,56,27.70
2018,08,10,14,57,27.70
2018,08,10,14,58,27.60
2018,08,10,14,59,27.60
2018,08,10,15,00,27.60
2018,08,10,15,01,27.60
2018,08,10,15,02,27.50
2018,08,10,15,03,27.50
2018,08,10,15,04,27.50
2018,08,10,15,05,27.60
2018,08,10,15,06,27.70
2018,08,10,15,07,27.70
2018,08,10,15,08,27.80
2018,08,10,15,09,27.90
2018,08,10,15,10,27.90
2018,08,10,15,11,28.00
2018,08,10,15,12,28.00
2018,08,10,15,13,28.10
2018,08,10,15,14,28.20
2018,08,10,15,15,28.40
2018,08,10,15,16,28.50
2018,08,10,15,17,28.60
2018,08,10,15,18,28.60
2018,08,10,15,19,28.70
2018,08,10,15,20,28.60
2018,08,10,15,21,28.40
2018,08,10,15,22,28.20
2018,08,10,15,23,28.10
2018,08,10,15,24,28.00
2018,08,10,15,25,27.80
2018,08,10,15,26,27.80
2018,08,10,15,27,27.90
2018,08,10,15,28,27.90
2018,08,10,15,29,28.00
2018,08,10,15,30,28.20
2018,08,10,15,31,28.30
2018,08,10,15,32,28.30
2018,08,10,15,33,28.30
2018,08,10,15,34,28.30
2018,08,10,15,35,28.40
2018,08,10,15,36,28.50
2018,08,10,15,37,28.70
2018,08,10,15,38,28.70
2018,08,10,15,39,28.60
2018,08,10,15,40,28.50
2018,08,10,15,41,28.50
2018,08,10,15,42,28.40
2018,08,10,15,43,28.20
2018,08,10,15,44,28.20
2018,08,10,15,45,28.30
2018,08,10,15,46,28.40
2018,08,10,15,47,28.40
2018,08,10,15,48,28.40
2018,08,10,15,49,28.40
2018,08,10,15,50,28.40
2018,08,10,15,51,28.50
2018,08,10,15,52,28.60
2018,08,10,15,53,28.60
2018,08,10,15,54,28.70
2018,08,10,15,55,28.50
2018,08,10,15,56,28.30
2018,08,10,15,57,28.30
2018,08,10,15,58,28.20
2018,08,10,15,59,28.20
2018,08,10,16,00,28.20
2018,08,10,16,01,28.00
2018,08,10,16,02,27.90
2018,08,10,16,03,27.80
2018,08,10,16,04,27.80
2018,08,10,16,05,27.80
2018,08,10,16,06,27.90
2018,08,10,16,07,27.90
2018,08,10,16,08,28.00
2018,08,10,16,09,28.10
2018,08,10,16,10,28.00
2018,08,10,16,11,28.00
2018,08,10,16,12,28.00
2018,08,10,16,13,28.10
2018,08,10,16,14,28.10
2018,08,10,16,15,28.10
2018,08,10,16,16,28.10
2018,08,10,16,17,28.10
2018,08,10,16,18,28.00
2018,08,10,16,19,27.90
2018,08,10,16,20,27.80
2018,08,10,16,21,27.80
2018,08,10,16,22,27.70
2018,08,10,16,23,27.70
2018,08,10,16,24,27.80
2018,08,10,16,25,27.80
2018,08,10,16,26,27.90
2018,08,10,16,27,28.00
2018,08,10,16,28,28.20
2018,08,10,16,29,28.30
2018,08,10,16,30,28.40
2018,08,10,16,31,28.50
2018,08,10,16,32,28.70
2018,08,10,16,33,28.80
2018,08,10,16,34,28.80
2018,08,10,16,35,28.80
2018,08,10,16,36,28.90
2018,08,10,16,37,28.90
2018,08,10,16,38,29.00
2018,08,10,16,39,29.00
2018,08,10,16,40,29.00
2018,08,10,16,41,28.90
2018,08,10,16,42,28.80
2018,08,10,16,43,28.70
2018,08,10,16,44,28.60
2018,08,10,16,45,28.50
2018,08,10,16,46,28.40
2018,08,10,16,47,28.40
2018,08,10,16,48,28.30
2018,08,10,16,49,28.20
2018,08,10,16,50,28.10
2018,08,10,16,51,28.10
2018,08,10,16,52,28.20
2018,08,10,16,53,28.20
2018,08,10,16,54,28.20
2018,08,10,16,55,28.20
2018,08,10,16,56,28.20
2018,08,10,16,57,28.20
2018,08,10,16,58,28.30
2018,08,10,16,59,28.30
2018,08,10,17,00,28.20
2018,08,10,17,01,28.20
2018,08,10,17,02,28.10
2018,08,10,17,03,28.10
2018,08,10,17,04,28.10
2018,08,10,17,05,28.20
2018,08,10,17,06,28.10
2018,08,10,17,07,28.00
2018,08,10,17,08,27.90
2018,08,10,17,09,27.70
2018,08,10,17,10,27.60
2018,08,10,17,11,27.50
2018,08,10,17,12,27.40
2018,08,10,17,13,27.40
2018,08,10,17,14,27.40
2018,08,10,17,15,27.50
2018,08,10,17,16,27.70
2018,08,10,17,17,27.80
2018,08,10,17,18,28.00
2018,08,10,17,19,28.10
2018,08,10,17,20,28.40
2018,08,10,17,21,28.50
2018,08,10,17,22,28.70
2018,08,10,17,23,28.80
2018,08,10,17,24,28.80
2018,08,10,17,25,28.90
2018,08,10,17,26,28.90
2018,08,10,17,27,29.00
2018,08,10,17,28,29.00
2018,08,10,17,29,29.00
2018,08,10,17,30,29.00
2018,08,10,17,31,29.00
2018,08,10,17,32,28.90
2018,08,10,17,33,28.90
2018,08,10,17,34,28.90
2018,08,10,17,35,28.90
2018,08,10,17,36,28.80
2018,08,10,17,37,28.80
2018,08,10,17,38,28.80
2018,08,10,17,39,28.90
2018,08,10,17,40,28.90
2018,08,10,17,41,29.00
2018,08,10,17,42,29.10
2018,08,10,17,43,28.90
2018,08,10,17,44,28.70
2018,08,10,17,45,28.40
2018,08,10,17,46,28.30
2018,08,10,17,47,28.20
2018,08,10,17,48,28.10
2018,08,10,17,49,28.00
2018,08,10,17,50,28.00
2018,08,10,17,51,27.90
2018,08,10,17,52,27.90
2018,08,10,17,53,27.90
2018,08,10,17,54,27.90
2018,08,10,17,55,27.80
2018,08,10,17,56,27.80
2018,08,10,17,57,27.70
2018,08,10,17,58,27.60
2018,08,10,17,59,27.50
2018,08,10,18,00,27.50
2018,08,10,18,01,27.50
2018,08,10,18,02,27.60
2018,08,10,18,03,27.70
2018,08,10,18,04,27.70
2018,08,10,18,05,27.70
2018,08,10,18,06,27.70
2018,08,10,18,07,27.80
2018,08,10,18,08,27.80
2018,08,10,18,09,27.80
2018,08,10,18,10,27.80
2018,08,10,18,11,27.80
2018,08,10,18,12,27.80
2018,08,10,18,13,27.90
2018,08,10,18,14,28.00
2018,08,10,18,15,28.00
2018,08,10,18,16,28.10
2018,08,10,18,17,28.20
2018,08,10,18,18,28.20
2018,08,10,18,19,28.30
2018,08,10,18,20,28.40
2018,08,10,18,21,28.40
2018,08,10,18,22,28.50
2018,08,10,18,23,28.60
2018,08,10,18,24,28.50
2018,08,10,18,25,28.50
2018,08,10,18,26,28.60
2018,08,10,18,27,28.60
2018,08,10,18,28,28.60
2018,08,10,18,29,28.60
2018,08,10,18,30,28.70
2018,08,10,18,31,28.70
2018,08,10,18,32,28.80
2018,08,10,18,33,28.80
2018,08,10,18,34,28.80
2018,08,10,18,35,28.80
2018,08,10,18,36,28.50
2018,08,10,18,37,28.20
2018,08,10,18,38,27.90
2018,08,10,18,39,27.60
2018,08,10,18,40,27.30
2018,08,10,18,41,27.10
2018,08,10,18,42,26.90
2018,08,10,18,43,26.80
2018,08,10,18,44,26.70
2018,08,10,18,45,26.70
2018,08,10,18,46,26.80
2018,08,10,18,47,26.90
2018,08,10,18,48,26.90
2018,08,10,18,49,26.90
2018,08,10,18,50,26.60
2018,08,10,18,51,26.30
2018,08,10,18,52,26.00
2018,08,10,18,53,25.70
2018,08,10,18,54,25.50
2018,08,10,18,55,25.30
2018,08,10,18,56,25.20
2018,08,10,18,57,25.10
2018,08,10,18,58,25.00
2018,08,10,18,59,24.90
2018,08,10,19,00,24.90
2018,08,10,19,01,24.80
2018,08,10,19,02,24.80
2018,08,10,19,03,24.80
2018,08,10,19,04,24.80
2018,08,10,19,05,24.70
2018,08,10,19,06,24.60
2018,08,10,19,07,24.60
2018,08,10,19,08,24.60
2018,08,10,19,09,24.60
2018,08,10,19,10,24.60
2018,08,10,19,11,24.60
2018,08,10,19,12,24.60
2018,08,10,19,13,24.60
2018,08,10,19,14,24.70
2018,08,10,19,15,24.70
2018,08,10,19,16,24.70
2018,08,10,19,17,24.70
2018,08,10,19,18,24.80
2018,08,10,19,19,24.80
2018,08,10,19,20,24.80
2018,08,10,19,21,24.70
2018,08,10,19,22,24.70
2018,08,10,19,23,24.70
2018,08,10,19,24,24.70
2018,08,10,19,25,24.70
2018,08,10,19,26,24.70
2018,08,10,19,27,24.70
2018,08,10,19,28,24.70
2018,08,10,19,29,24.70
2018,08,10,19,30,24.70
2018,08,10,19,31,24.70
2018,08,10,19,32,24.70
2018,08,10,19,33,24.70
2018,08,10,19,34,24.70
2018,08,10,19,35,24.70
2018,08,10,19,36,24.70
2018,08,10,19,37,24.60
2018,08,10,19,38,24.60
2018,08,10,19,39,24.50
2018,08,10,19,40,24.50
2018,08,10,19,41,24.40
2018,08,10,19,42,24.40
2018,08,10,19,43,24.30
2018,08,10,19,44,24.20
2018,08,10,19,45,24.20
2018,08,10,19,46,24.10
2018,08,10,19,47,24.10
2018,08,10,19,48,24.00
2018,08,10,19,49,24.00
2018,08,10,19,50,23.90
2018,08,10,19,51,23.90
2018,08,10,19,52,23.80
2018,08,10,19,53,23.70
2018,08,10,19,54,23.60
2018,08,10,19,55,23.50
2018,08,10,19,56,23.40
2018,08,10,19,57,23.30
2018,08,10,19,58,23.20
2018,08,10,19,59,23.10
2018,08,10,20,00,23.00
2018,08,10,20,01,23.00
2018,08,10,20,02,22.90
2018,08,10,20,03,22.90
2018,08,10,20,04,22.90
2018,08,10,20,05,22.90
2018,08,10,20,06,22.90
2018,08,10,20,07,23.00
2018,08,10,20,08,23.00
2018,08,10,20,09,23.10
2018,08,10,20,10,23.20
2018,08,10,20,11,23.20
2018,08,10,20,12,23.40
2018,08,10,20,13,23.40
2018,08,10,20,14,23.50
2018,08,10,20,15,23.60
2018,08,10,20,16,23.70
2018,08,10,20,17,23.80
2018,08,10,20,18,24.00
2018,08,10,20,19,24.10
2018,08,10,20,20,24.30
2018,08,10,20,21,24.40
2018,08,10,20,22,24.60
2018,08,10,20,23,24.70
2018,08,10,20,24,24.80
2018,08,10,20,25,24.80
2018,08,10,20,26,24.90
2018,08,10,20,27,25.00
2018,08,10,20,28,25.10
2018,08,10,20,29,25.10
2018,08,10,20,30,25.10
2018,08,10,20,31,25.20
2018,08,10,20,32,25.20
2018,08,10,20,33,25.20
2018,08,10,20,34,25.20
2018,08,10,20,35,25.30
2018,08,10,20,36,25.30
2018,08,10,20,37,25.30
2018,08,10,20,38,25.30
2018,08,10,20,39,25.30
2018,08,10,20,40,25.30
2018,08,10,20,41,25.20
2018,08,10,20,42,25.20
2018,08,10,20,43,25.20
2018,08,10,20,44,25.20
2018,08,10,20,45,25.10
2018,08,10,20,46,25.10
2018,08,10,20,47,25.10
2018,08,10,20,48,25.00
2018,08,10,20,49,25.00
2018,08,10,20,50,24.90
2018,08,10,20,51,24.90
2018,08,10,20,52,24.90
2018,08,10,20,53,24.90
2018,08,10,20,54,24.80
2018,08,10,20,55,24.80
2018,08,10,20,56,24.80
2018,08,10,20,57,24.80
2018,08,10,20,58,24.80
2018,08,10,20,59,24.80
2018,08,10,21,00,24.70
2018,08,10,21,01,24.70
2018,08,10,21,02,24.70
2018,08,10,21,03,24.60
2018,08,10,21,04,24.50
2018,08,10,21,05,24.40
2018,08,10,21,06,24.40
2018,08,10,21,07,24.30
2018,08,10,21,08,24.30
2018,08,10,21,09,24.20
2018,08,10,21,10,24.20
2018,08,10,21,11,24.10
2018,08,10,21,12,24.10
2018,08,10,21,13,24.10
2018,08,10,21,14,24.10
2018,08,10,21,15,24.00
2018,08,10,21,16,24.10
2018,08,10,21,17,24.10
2018,08,10,21,18,24.10
2018,08,10,21,19,24.10
2018,08,10,21,20,24.00
2018,08,10,21,21,24.00
2018,08,10,21,22,24.00
2018,08,10,21,23,24.00
2018,08,10,21,24,23.90
2018,08,10,21,25,23.90
2018,08,10,21,26,23.90
2018,08,10,21,27,23.90
2018,08,10,21,28,23.90
2018,08,10,21,29,23.90
2018,08,10,21,30,23.80
2018,08,10,21,31,23.80
2018,08,10,21,32,23.80
2018,08,10,21,33,23.90
2018,08,10,21,34,23.90
2018,08,10,21,35,23.90
2018,08,10,21,36,23.90
2018,08,10,21,37,23.90
2018,08,10,21,38,23.80
2018,08,10,21,39,23.70
2018,08,10,21,40,23.70
2018,08,10,21,41,23.70
2018,08,10,21,42,23.70
2018,08,10,21,43,23.60
2018,08,10,21,44,23.60
2018,08,10,21,45,23.60
2018,08,10,21,46,23.60
2018,08,10,21,47,23.60
2018,08,10,21,48,23.60
2018,08,10,21,49,23.50